Flag for U.S.A. Weather past 2 weeks in Buffalo, New York, U.S.A.

Now
52 °F

Passing clouds.


Feels Like: 49 °F
Forecast: 32 / 52 °F
Wind: 8 mph from North

Location: Greater Buffalo International Airport


UV Index: 0 (Low)

Visibility: 10 mi


Pressure: 30.07 "Hg

Humidity: 27%

Dew point: 19 °F

Location of BuffaloLocation

Historic Weather in Buffalo

°F

Buffalo temperature yesterday

Maximum temperature yesterday: 47 °F (at 5:54 PM)
Minimum temperature yesterday: 36 °F (at 8:54 AM)
Average temperature yesterday: 40 °F

Past Weeks' High & Low Weather Summary

 TemperatureHumidityPressure
High75 °F (Apr 14, 10:54 AM)100% (Apr 11, 7:54 AM)30.57 "Hg (Apr 11, 7:54 AM)
Low24 °F (Apr 16, 12:54 AM)16% (Apr 20, 4:54 PM)29.58 "Hg (Apr 22, 8:54 AM)
Average48 °F60%30.05 "Hg
* Reported Apr 9 5:54 PM — Apr 24 5:54 PM, Buffalo, Weather by CustomWeather, © 2014

Note: Actual official high and low records may vary slightly from our data, if they occured in-between our weather recording intervals... More about our weather records

Advertising

Historic Weather Conditions — Data for Previous 24 hours

 ConditionsComfort  
Time TempWeatherWind HumidityBarometerVisibility
5:54 PM
Apr 24
53 °FPassing clouds.8 mph23%30.08 "Hg10 mi
4:54 PM53 °FPassing clouds.6 mph25%30.09 "Hg10 mi
3:54 PM51 °FPassing clouds.9 mph28%30.09 "Hg10 mi
2:54 PM50 °FPassing clouds.12 mph35%30.12 "Hg10 mi
1:54 PM50 °FPassing clouds.8 mph30%30.15 "Hg10 mi
12:54 PM49 °FPassing clouds.9 mph26%30.16 "Hg10 mi
11:54 AM48 °FPassing clouds.10 mph27%30.16 "Hg10 mi
10:54 AM47 °FPassing clouds.9 mph30%30.17 "Hg10 mi
9:54 AM44 °FPassing clouds.10 mph35%30.17 "Hg10 mi
8:54 AM42 °FPassing clouds.6 mph43%30.16 "Hg10 mi
7:54 AM37 °FPassing clouds.8 mph57%30.15 "Hg10 mi
6:54 AM34 °FPassing clouds.7 mph61%30.15 "Hg10 mi
5:54 AM32 °FPassing clouds.7 mph64%30.12 "Hg10 mi
4:54 AM33 °FClear.7 mph61%30.10 "Hg10 mi
3:54 AM33 °FClear.6 mph63%30.09 "Hg10 mi
2:54 AM35 °FClear.8 mph61%30.08 "Hg10 mi
1:54 AM36 °FClear.9 mph62%30.09 "Hg10 mi
12:54 AM37 °FClear.9 mph57%30.09 "Hg10 mi
11:54 PM
Apr 23
39 °FClear.9 mph45%30.08 "Hg10 mi
10:54 PM40 °FClear.10 mph40%30.06 "Hg10 mi
9:54 PM40 °FPassing clouds.9 mph38%30.06 "Hg10 mi
8:54 PM41 °FPassing clouds.13 mph39%30.03 "Hg10 mi
7:54 PM43 °FPassing clouds.12 mph42%30.01 "Hg10 mi
Weather by CustomWeather, © 2014

See weather overview